Location: Andrea Ville Subdivision
(14.3485°N, 120.9580°E)
Time: 08:28:13
(UTC+00:00)

Meteor 2-19 Rocket - Visible Passes

Search period start: 10 April 2026 00:00
Search period end: 20 April 2026 00:00
Orbit: 937 x 957 km, 82.5° (Epoch: 9 April)

Date Brightness Start Highest point End Pass type
(mag) Time Alt. Az. Time Alt. Az. Time Alt. Az.
10 Apr 6.4 11:38:01 10° NE 11:38:44 12° NE 11:38:44 12° NE visible
10 Apr 6.8 13:21:37 10° NNW 13:22:50 16° NW 13:22:50 16° NW visible
11 Apr 5.9 11:53:45 10° NNE 11:56:12 22° NE 11:56:12 22° NE visible
11 Apr 7.1 13:39:39 10° NW 13:40:18 12° NW 13:40:18 12° NW visible
12 Apr 5.3 12:10:05 10° N 12:13:43 37° NNE 12:13:43 37° NNE visible
13 Apr 5.1 12:26:51 10° N 12:31:18 50° NNW 12:31:18 50° NNW visible
14 Apr 5.9 11:01:26 10° NE 11:04:50 16° E 11:04:50 16° E visible
14 Apr 5.6 12:44:03 10° NNW 12:48:57 39° WNW 12:48:57 39° WNW visible
15 Apr 5.2 11:16:45 10° NNE 11:21:56 29° E 11:22:34 28° E visible
15 Apr 6.3 13:01:46 10° NW 13:06:25 23° W 13:06:41 23° W visible
16 Apr 4.5 11:32:54 10° N 11:38:49 51° E 11:40:24 41° SE visible
16 Apr 7.0 13:20:49 10° WNW 13:23:06 12° W 13:24:32 11° WSW visible
17 Apr 4.3 11:49:30 10° N 11:55:38 90° E 11:58:20 36° S visible
18 Apr 5.1 12:06:32 10° NNW 12:12:25 51° W 12:16:25 20° SSW visible
19 Apr 5.5 10:39:52 10° NNE 10:44:34 23° E 10:49:15 10° SE visible
19 Apr 6.2 12:24:02 10° NNW 12:29:09 29° W 12:34:15 10° SSW visible
